When you browse on this site, cookies collect data to enhance your experience and personalize the content and advertising you see.
Visit our Privacy Policy to learn more. By continuing to use the site, you agree to this use of cookies and data.
EN

Hourly Weather Salgotarjan

Today, 10 July, Friday

Time Temperature Precipitation Wind Pressure Humidity
00:00 +16°C° 0 mm 0 mps 732 mmHg 88%
01:00 +16°C° 0 mm 0 mps 732 mmHg 86%
02:00 +16°C° 0 mm 0 mps 732 mmHg 86%
03:00 +16°C° 0 mm 0 mps 732 mmHg 86%
04:00 +15°C° 0 mm 0 mps 732 mmHg 86%
05:00 +19°C° 0 mm 1 mps 732 mmHg 82%
06:00 +21°C° 0 mm 1 mps 733 mmHg 78%
07:00 +22°C° 0 mm 1 mps 733 mmHg 73%
08:00 +24°C° 0 mm 1 mps 733 mmHg 68%
09:00 +25°C° 0 mm 2 mps 733 mmHg 63%
10:00 +27°C° 0 mm 2 mps 733 mmHg 58%
11:00 +28°C° 0 mm 3 mps 733 mmHg 57%
12:00 +28°C° 0 mm 3 mps 733 mmHg 55%
13:00 +29°C° 0 mm 4 mps 732 mmHg 53%
14:00 +29°C° 0 mm 4 mps 732 mmHg 55%
15:00 +29°C° 0 mm 3 mps 732 mmHg 56%
16:00 +29°C° 0 mm 3 mps 732 mmHg 58%
17:00 +28°C° 0 mm 3 mps 731 mmHg 65%
18:00 +26°C° 0 mm 2 mps 731 mmHg 72%
19:00 +25°C° 0 mm 2 mps 731 mmHg 79%
20:00 +23°C° 0 mm 2 mps 731 mmHg 82%
21:00 +22°C° 0 mm 1 mps 731 mmHg 85%
22:00 +21°C° 0 mm 1 mps 731 mmHg 88%
23:00 +20°C° 0 mm 1 mps 731 mmHg 89%

Tomorrow, 11 July, Saturday

Time Temperature Precipitation Wind Pressure Humidity
00:00 +20°C° 0 mm 1 mps 731 mmHg 90%
01:00 +20°C° 0 mm 1 mps 731 mmHg 90%
02:00 +19°C° 0 mm 1 mps 731 mmHg 91%
03:00 +19°C° 0 mm 1 mps 731 mmHg 92%
04:00 +19°C° 0 mm 1 mps 731 mmHg 92%
05:00 +20°C° 0 mm 1 mps 731 mmHg 86%
06:00 +22°C° 0 mm 1 mps 731 mmHg 79%
07:00 +24°C° 0 mm 1 mps 731 mmHg 72%
08:00 +25°C° 0 mm 2 mps 731 mmHg 66%
09:00 +26°C° 0 mm 3 mps 731 mmHg 61%
10:00 +27°C° 0 mm 3 mps 732 mmHg 55%
11:00 +28°C° 0 mm 3 mps 732 mmHg 55%
12:00 +28°C° 0 mm 4 mps 732 mmHg 54%
13:00 +29°C° 0 mm 4 mps 732 mmHg 54%
14:00 +29°C° 0.3 mm 3 mps 732 mmHg 58%
15:00 +28°C° 0.3 mm 2 mps 732 mmHg 62%
16:00 +28°C° 0.3 mm 2 mps 732 mmHg 66%
17:00 +26°C° 0.8 mm 2 mps 732 mmHg 73%
18:00 +24°C° 0.8 mm 2 mps 732 mmHg 81%
19:00 +21°C° 0.8 mm 2 mps 732 mmHg 89%
20:00 +19°C° 2.4 mm 3 mps 732 mmHg 91%
21:00 +17°C° 2.4 mm 3 mps 732 mmHg 92%
22:00 +14°C° 2.4 mm 3 mps 732 mmHg 94%
23:00 +14°C° 1.2 mm 3 mps 732 mmHg 94%

Day after tomorrow, 12 July, Sunday

Time Temperature Precipitation Wind Pressure Humidity
00:00 +14°C° 1.2 mm 2 mps 732 mmHg 95%
01:00 +14°C° 1.2 mm 2 mps 732 mmHg 95%
02:00 +14°C° 0.7 mm 2 mps 733 mmHg 95%
03:00 +14°C° 0.7 mm 2 mps 733 mmHg 95%
04:00 +13°C° 0.7 mm 2 mps 733 mmHg 94%
05:00 +14°C° 0.2 mm 2 mps 733 mmHg 93%
06:00 +14°C° 0.2 mm 2 mps 733 mmHg 92%
07:00 +14°C° 0.2 mm 2 mps 734 mmHg 91%
08:00 +15°C° 0 mm 2 mps 734 mmHg 86%
09:00 +15°C° 0 mm 2 mps 735 mmHg 82%
10:00 +16°C° 0 mm 2 mps 735 mmHg 77%
11:00 +17°C° 0.1 mm 2 mps 735 mmHg 73%
12:00 +17°C° 0.1 mm 2 mps 736 mmHg 69%
13:00 +18°C° 0.1 mm 2 mps 736 mmHg 66%
14:00 +19°C° 0 mm 2 mps 736 mmHg 62%
15:00 +20°C° 0 mm 2 mps 736 mmHg 57%
16:00 +22°C° 0 mm 1 mps 736 mmHg 53%
17:00 +20°C° 0 mm 1 mps 736 mmHg 62%
18:00 +19°C° 0 mm 1 mps 736 mmHg 70%
19:00 +16°C° 0 mm 1 mps 736 mmHg 79%
20:00 +15°C° 0 mm 1 mps 736 mmHg 81%
21:00 +13°C° 0 mm 0 mps 736 mmHg 83%
22:00 +12°C° 0 mm 0 mps 736 mmHg 85%
23:00 +12°C° 0 mm 0 mps 736 mmHg 86%

13 July, Monday

Time Temperature Precipitation Wind Pressure Humidity
00:00 +12°C° 0 mm 0 mps 736 mmHg 86%
01:00 +11°C° 0 mm 0 mps 736 mmHg 87%
02:00 +12°C° 0 mm 1 mps 736 mmHg 88%
03:00 +11°C° 0 mm 1 mps 736 mmHg 89%
04:00 +11°C° 0 mm 1 mps 736 mmHg 90%
05:00 +13°C° 0 mm 1 mps 736 mmHg 84%
06:00 +14°C° 0 mm 1 mps 736 mmHg 79%
07:00 +16°C° 0 mm 1 mps 736 mmHg 73%
08:00 +18°C° 0 mm 1 mps 736 mmHg 67%
09:00 +20°C° 0 mm 1 mps 736 mmHg 61%
10:00 +21°C° 0 mm 1 mps 736 mmHg 54%
11:00 +22°C° 0 mm 1 mps 736 mmHg 52%
12:00 +22°C° 0 mm 1 mps 736 mmHg 50%
13:00 +23°C° 0 mm 1 mps 735 mmHg 47%
14:00 +23°C° 0 mm 1 mps 735 mmHg 47%
15:00 +23°C° 0 mm 1 mps 735 mmHg 47%
16:00 +23°C° 0 mm 1 mps 734 mmHg 47%
17:00 +21°C° 0 mm 1 mps 734 mmHg 55%
18:00 +20°C° 0 mm 1 mps 734 mmHg 63%
19:00 +18°C° 0 mm 1 mps 734 mmHg 71%
20:00 +16°C° 0 mm 1 mps 734 mmHg 73%
21:00 +15°C° 0 mm 1 mps 734 mmHg 75%
22:00 +15°C° 0 mm 1 mps 734 mmHg 76%
23:00 +14°C° 0 mm 1 mps 734 mmHg 77%

14 July, Tuesday

Time Temperature Precipitation Wind Pressure Humidity
00:00 +13°C° 0 mm 0 mps 734 mmHg 78%
01:00 +13°C° 0 mm 0 mps 734 mmHg 78%
02:00 +12°C° 0 mm 0 mps 734 mmHg 79%
03:00 +12°C° 0 mm 0 mps 733 mmHg 79%
04:00 +12°C° 0 mm 0 mps 733 mmHg 80%
05:00 +13°C° 0 mm 0 mps 733 mmHg 77%
06:00 +15°C° 0 mm 0 mps 733 mmHg 74%
07:00 +16°C° 0 mm 0 mps 734 mmHg 72%
08:00 +17°C° 0.1 mm 0 mps 734 mmHg 69%
09:00 +20°C° 0.1 mm 1 mps 733 mmHg 66%
10:00 +21°C° 0.1 mm 1 mps 733 mmHg 63%
11:00 +22°C° 0.2 mm 1 mps 733 mmHg 62%
12:00 +22°C° 0.2 mm 1 mps 733 mmHg 61%
13:00 +22°C° 0.2 mm 1 mps 733 mmHg 60%
14:00 +22°C° 0.1 mm 1 mps 732 mmHg 60%
15:00 +22°C° 0.1 mm 1 mps 732 mmHg 61%
16:00 +22°C° 0.1 mm 1 mps 732 mmHg 61%
17:00 +21°C° 0.1 mm 1 mps 732 mmHg 68%
18:00 +20°C° 0.1 mm 1 mps 732 mmHg 74%
19:00 +17°C° 0.1 mm 0 mps 731 mmHg 80%
20:00 +16°C° 0 mm 0 mps 731 mmHg 82%
21:00 +15°C° 0 mm 0 mps 731 mmHg 83%
22:00 +14°C° 0 mm 0 mps 732 mmHg 84%
23:00 +13°C° 0 mm 0 mps 731 mmHg 85%

15 July, Wednesday

Time Temperature Precipitation Wind Pressure Humidity
00:00 +13°C° 0 mm 0 mps 731 mmHg 85%
01:00 +13°C° 0 mm 0 mps 731 mmHg 86%
02:00 +12°C° 0 mm 0 mps 731 mmHg 87%
03:00 +12°C° 0 mm 0 mps 731 mmHg 88%
04:00 +12°C° 0 mm 0 mps 731 mmHg 89%
05:00 +13°C° 0 mm 0 mps 731 mmHg 85%
06:00 +15°C° 0 mm 0 mps 732 mmHg 81%
07:00 +17°C° 0 mm 0 mps 732 mmHg 77%
08:00 +18°C° 0 mm 0 mps 732 mmHg 70%
09:00 +22°C° 0 mm 1 mps 732 mmHg 63%
10:00 +23°C° 0 mm 1 mps 732 mmHg 57%
11:00 +23°C° 0 mm 2 mps 732 mmHg 56%
12:00 +24°C° 0 mm 2 mps 732 mmHg 56%
13:00 +24°C° 0 mm 2 mps 732 mmHg 55%
14:00 +24°C° 0 mm 2 mps 731 mmHg 55%
15:00 +24°C° 0 mm 2 mps 731 mmHg 55%
16:00 +24°C° 0 mm 2 mps 731 mmHg 55%
17:00 +23°C° 0 mm 2 mps 731 mmHg 61%
18:00 +21°C° 0 mm 1 mps 731 mmHg 68%
19:00 +20°C° 0 mm 1 mps 730 mmHg 74%
20:00 +19°C° 0 mm 1 mps 731 mmHg 75%
21:00 +18°C° 0 mm 1 mps 731 mmHg 77%
22:00 +15°C° 0 mm 0 mps 731 mmHg 78%
23:00 +14°C° 0 mm 0 mps 731 mmHg 79%
Show more